Location: Igri�s
(42.2144°N, 0.4320°W)
Time: 18:57:13
(UTC+00:00)

SPOT 1/Viking Rocket - Pass Details

Date: 13 August 2020
Orbit: 776 x 795 km, 98.5° (Epoch: 20 September)

Event Time Altitude Azimuth Distance (km) Brightness Sun altitude
Exits shadow 21:25:42 47° 173° (S) 1,045 3.8 -22.5°
Maximum altitude 21:27:16 84° 256° (WSW) 805 3.5 -22.7°
Drops below altitude 10° 21:32:31 10° 345° (NNW) 2,373 6.9 -23.3°
Sets 21:34:52 0° 346° (NNW) 3,306 7.8 -23.6°
